VANOK Weather Reports


time (UTC)temp
C
wind
direction
speed
KPH
gust
KPH
rain 1hr
cm
rain 24hr
cm
rain mn
cm
humidity
%
barometer
mb
20260906062458 12 313 11.3 16.1 0.00 0.00 0.00 76 1008.4
20260906060454 12 344 19.3 27.4 0.00 0.00 0.00 74 1008.2
20260906054457 11 341 20.9 27.4 0.00 0.00 0.00 74 1008.0
20260906052458 12 343 17.7 27.4 0.00 0.00 0.00 74 1007.8
20260906050459 11 341 20.9 33.8 0.00 0.00 0.00 76 1007.5
20260906042455 11 341 24.1 37.0 0.00 0.00 0.00 79 1007.1
20260906040458 11 344 24.1 33.8 0.00 0.00 0.00 79 1006.7
20260906034128 11 340 25.7 38.6 0.00 0.00 0.00 80 1006.4
20260906032457 11 337 27.4 38.6 0.00 0.00 0.00 80 1006.1
20260906030458 11 330 25.7 37.0 0.00 0.00 0.00 80 1006.0
20260906024458 11 332 25.7 40.2 0.00 0.00 0.00 81 1005.8
20260906022458 11 326 25.7 38.6 0.00 0.00 0.00 81 1005.6
20260906020458 11 342 27.4 41.8 0.00 0.00 0.00 79 1005.4
20260906014459 11 344 27.4 38.6 0.00 0.00 0.00 79 1005.1
20260906012457 11 343 30.6 41.8 0.00 0.00 0.00 77 1004.9
20260906010458 11 346 30.6 45.1 0.00 0.00 0.00 77 1004.7
20260906004459 11 348 27.4 40.2 0.00 0.00 0.00 77 1004.4
20260906002457 11 337 33.8 45.1 0.00 0.00 0.00 79 1004.1
20260906000127 11 341 27.4 40.2 0.00 0.00 0.00 79 1003.9
20260905234456 12 341 30.6 41.8 0.00 0.00 0.00 79 1003.7
20260905232456 12 343 30.6 45.1 0.00 0.00 0.00 74 1003.3
20260905230456 12 347 24.1 35.4 0.00 0.00 0.00 80 1003.0
20260905224128 13 348 27.4 38.6 0.00 0.00 0.00 79 1002.7
20260905222456 13 348 27.4 38.6 0.00 0.00 0.00 78 1002.5
20260905220457 13 352 29.0 41.8 0.00 0.00 0.00 77 1002.3
20260905214457 14 348 25.7 38.6 0.00 0.00 0.00 79 1002.0
20260905212457 14 334 24.1 33.8 0.00 0.00 0.00 81 1001.8
20260905210126 14 324 20.9 30.6 0.00 0.00 0.00 83 1001.5
20260905204456 14 317 22.5 30.6 0.00 0.00 0.00 83 1001.3
20260905202456 14 314 19.3 29.0 0.00 0.00 0.00 82 1001.1
20260905200457 14 316 20.9 32.2 0.00 0.00 0.00 81 1000.8
20260905194126 14 313 20.9 30.6 0.00 0.00 0.00 82 1000.8
20260905192127 15 305 20.9 30.6 0.00 0.00 0.00 81 1000.6
20260905190126 15 305 22.5 29.0 0.00 0.00 0.00 80 1000.6
20260905184457 15 301 22.5 30.6 0.00 0.00 0.00 77 1000.5
20260905182455 15 300 22.5 30.6 0.00 0.00 0.00 76 1000.3
20260905180453 15 301 22.5 32.2 0.00 0.00 0.00 75 1000.2
20260905174125 15 302 22.5 32.2 0.00 0.00 0.00 75 1000.0
20260905172454 15 298 20.9 29.0 0.00 0.00 0.00 76 999.8
20260905170455 15 298 19.3 29.0 0.00 0.00 0.00 73 999.6
20260905164456 15 302 22.5 30.6 0.00 0.00 0.00 71 999.5
20260905162453 15 314 22.5 33.8 0.00 0.00 0.00 71 999.3
20260905160455 16 317 20.9 30.6 0.00 0.00 0.00 71 999.1
20260905154454 16 307 17.7 29.0 0.00 0.00 0.00 66 998.8
20260905152455 16 304 19.3 27.4 0.00 0.00 0.00 65 998.7
20260905150455 16 304 20.9 32.2 0.00 0.00 0.00 64 998.6
20260905144455 17 299 20.9 30.6 0.00 0.00 0.00 59 998.4
20260905142455 16 298 22.5 30.6 0.00 0.00 0.00 56 998.3
20260905140455 17 298 20.9 32.2 0.00 0.00 0.00 61 998.1
20260905134454 17 297 20.9 27.4 0.00 0.00 0.00 61 998.0
20260905132452 17 299 20.9 29.0 0.00 0.00 0.00 55 997.8
20260905130459 17 292 17.7 27.4 0.00 0.00 0.00 57 997.7
20260905124454 17 299 19.3 29.0 0.00 0.00 0.00 57 997.5
20260905122454 17 311 17.7 25.7 0.00 0.00 0.00 59 997.5
20260905120454 17 309 12.9 24.1 0.00 0.00 0.00 57 997.3
20260905114455 17 289 12.9 19.3 0.00 0.00 0.00 62 997.2
20260905112456 16 292 11.3 19.3 0.00 0.00 0.00 64 997.1
20260905110453 16 295 12.9 17.7 0.00 0.00 0.00 64 996.9
20260905104455 16 298 11.3 16.1 0.00 0.00 0.00 65 996.7
20260905090455 14 303 11.3 16.1 0.00 0.00 0.00 74 995.9
20260905084455 14 322 9.7 17.7 0.00 0.00 0.00 74 995.9
20260905080123 14 336 9.7 17.7 0.00 0.00 0.00 76 995.6
20260905074452 14 330 9.7 17.7 0.00 0.00 0.00 74 995.4
20260905072452 14 329 12.9 16.1 0.00 0.00 0.00 77 995.3
20260905070455 13 348 9.7 14.5 0.00 0.00 0.00 83 995.2